Location: Brantley
(31.5822°N, 86.2569°W)
Time: 06:18:57
(UTC+00:00)

Courier 1B Rocket - Pass Details

Date: 18 February 2026
Orbit: 920 x 1201 km, 28.2° (Epoch: 5 March)

Event Time Altitude Azimuth Distance (km) Brightness Sun altitude
Rises 00:05:10 0° 234° (SW) 3,543 9.2 -7.4°
Reaches altitude 10° 00:07:57 10° 226° (SW) 2,598 8.2 -8.0°
Maximum altitude 00:13:35 37° 160° (SSE) 1,402 5.8 -9.2°
Enters shadow 00:18:58 12° 97° (E) 2,537 6.6 -10.3°
Drops below altitude 10° 00:19:22 10° 95° (E) 2,668 - -10.4°
Sets 00:22:15 0° 87° (E) 3,649 - -11.0°
